This is the latest recevied weather packets stored in our database for station/object KG7KID-7. If no packets are shown the sender has not sent any weather packets the latest 10 day(s).
| Time | Temp. | Humidity | Pressure | Rain* | Wind** | Luminosity | Snow |
|---|---|---|---|---|---|---|---|
| 1778100936 | 25° C | 20% | 977.9 hPa | 0 mm | - | - | - |
| 1778100819 | 25° C | 20% | 977.9 hPa | 0 mm | - | - | - |
| 1778100701 | 24.44° C | 21% | 977.8 hPa | 0 mm | - | - | - |
| 1778100519 | 24.44° C | 21% | 977.8 hPa | 0 mm | - | - | - |
| 1778100219 | 23.89° C | 21% | 978 hPa | 0 mm | - | - | - |
| 1778100176 | 24.44° C | 21% | 977.9 hPa | 0 mm | - | - | - |
| 1778099919 | 24.44° C | 21% | 977.9 hPa | 0 mm | - | - | - |
| 1778099768 | 24.44° C | 21% | 978.1 hPa | 0 mm | - | - | - |
| 1778099620 | 24.44° C | 21% | 978.1 hPa | 0 mm | - | - | - |
| 1778099019 | 24.44° C | 21% | 978.3 hPa | 0 mm | - | - | - |
| 1778098902 | 23.89° C | 22% | 978.4 hPa | 0 mm | - | - | - |
| 1778098719 | 23.89° C | 22% | 978.4 hPa | 0 mm | - | - | - |
| 1778098323 | 23.89° C | 23% | 978.5 hPa | 0 mm | - | - | - |
| 1778098119 | 23.89° C | 23% | 978.5 hPa | 0 mm | - | - | - |
| 1778097962 | 23.33° C | 23% | 978.5 hPa | 0 mm | - | - | - |
| 1778097819 | 23.33° C | 23% | 978.5 hPa | 0 mm | - | - | - |
| 1778097673 | 23.33° C | 23% | 978.6 hPa | 0 mm | - | - | - |
| 1778097520 | 23.33° C | 23% | 978.6 hPa | 0 mm | - | - | - |
| 1778097405 | 22.78° C | 24% | 978.7 hPa | 0 mm | - | - | - |
| 1778097219 | 22.78° C | 24% | 978.7 hPa | 0 mm | - | - | - |
| 1778097113 | 22.78° C | 24% | 978.8 hPa | 0 mm | - | - | - |
| 1778096920 | 22.78° C | 24% | 978.8 hPa | 0 mm | - | - | - |
| 1778096619 | 22.78° C | 24% | 978.9 hPa | 0 mm | - | - | - |
| 1778096509 | 22.78° C | 24% | 979 hPa | 0 mm | - | - | - |
| 1778096320 | 22.78° C | 24% | 979 hPa | 0 mm | - | - | - |
* Rain latest hour (hover to see other rain measurements)
** Current wind speed in m/s (hover to see current wind gust speed)